Vorticity
nan nan nan nan nan nan nan nan nan nan nan nan nan nan nan nan nan nan nan nan nan nan nan nan nan nan nan nan nan nan nan nan nan nan nan nan nan nan nan nan nan nan nan nan
nan 13 12 14 14 9 9 11 13 9 8 14 20 21 20 13 9 8 8 8 8 8 8 8 9 9 9 8 9 9 9 9 9 8 9 9 10 9 9 9 9 10 10 nan
nan 12 13 22 17 9 12 14 12 11 10 18 23 15 14 13 10 9 10 10 9 7 7 8 9 9 8 9 9 8 9 8 9 9 9 10 9 9 9 8 9 8 8 nan
nan 14 11 9 12 17 16 12 16 10 9 14 14 18 18 16 13 11 10 9 7 8 9 8 8 9 8 8 8 8 8 9 9 9 9 9 9 9 9 9 8 8 8 nan
nan 11 7 14 17 14 10 10 19 17 19 15 13 8 13 16 14 13 11 9 9 9 9 9 8 8 8 8 8 7 8 8 8 9 9 9 9 9 10 8 8 8 7 nan
nan 7 10 14 19 14 9 15 13 19 21 12 5 5 16 19 12 12 11 11 11 9 8 8 9 8 8 8 7 7 8 8 9 9 8 8 8 9 10 9 9 7 6 nan
nan 4 8 15 14 7 8 14 14 15 15 11 3 12 23 17 12 11 11 11 8 8 9 10 8 8 8 8 9 9 8 8 8 7 8 9 9 9 8 8 9 10 8 nan
nan 11 17 15 9 5 10 13 11 13 13 9 11 17 16 11 11 10 9 9 8 7 9 10 9 8 8 8 8 8 9 9 7 8 9 8 9 9 8 10 8 8 9 nan
nan 9 17 5 3 15 10 10 10 13 14 13 10 13 12 11 9 9 8 7 8 10 8 9 9 9 9 9 9 8 8 8 8 9 8 8 9 8 9 9 9 9 9 nan
nan 11 8 9 7 8 9 11 13 15 15 11 11 11 11 10 9 9 8 9 9 9 8 8 9 10 11 9 8 8 8 8 7 7 8 10 9 8 9 11 11 9 10 nan
nan 11 14 16 12 9 9 11 12 14 14 12 12 12 9 10 10 9 9 9 9 9 9 10 9 10 9 9 8 8 8 8 8 8 8 7 6 12 14 9 12 14 12 nan
nan 15 13 21 21 11 10 10 11 11 10 12 12 13 10 10 10 10 10 9 9 10 10 10 9 10 9 9 9 8 8 8 9 9 9 10 10 7 5 9 10 10 10 nan
nan 13 14 14 15 13 13 13 12 12 13 11 11 13 12 10 11 10 10 10 10 11 11 10 10 10 10 10 9 9 10 11 9 10 10 10 10 9 9 7 3 4 7 nan
nan 7 9 12 11 14 12 11 11 12 14 13 12 12 12 11 12 11 10 10 11 11 11 10 10 10 11 12 11 10 9 10 10 10 10 10 9 9 9 8 8 10 6 nan
nan 5 14 19 14 11 11 11 11 11 11 12 12 12 12 12 10 10 10 11 10 10 11 11 10 9 8 11 13 11 9 9 9 9 10 9 9 8 9 8 8 9 12 nan
nan 14 15 12 9 9 9 10 10 11 11 11 11 12 11 11 12 12 12 11 10 11 10 11 13 11 11 10 8 8 9 10 9 9 9 8 8 8 9 9 9 9 9 nan
nan 10 11 12 11 9 8 9 12 12 11 11 12 12 12 11 11 11 10 8 10 14 14 12 12 11 12 12 8 8 11 10 9 9 9 9 9 9 9 9 9 9 10 nan
nan 18 17 14 11 9 10 11 13 13 12 11 10 9 11 12 11 11 10 10 10 11 11 12 13 11 11 11 10 9 11 11 10 9 10 11 9 9 9 10 10 10 12 nan
nan 16 16 15 12 10 10 10 11 11 12 13 12 11 9 10 13 13 11 9 9 10 12 13 12 9 11 11 10 10 12 11 10 10 9 11 12 10 10 11 10 11 12 nan
nan 14 14 11 11 11 10 11 12 10 11 10 10 12 11 11 12 12 11 7 6 14 18 13 9 9 11 12 9 11 11 11 10 10 11 10 11 11 11 12 11 11 11 nan
nan 9 9 9 7 11 15 14 12 13 12 12 12 11 12 12 12 11 10 10 12 12 14 11 7 10 12 11 10 10 10 9 10 11 10 11 12 12 11 11 11 11 11 nan
nan 10 12 11 10 10 11 13 13 14 12 9 11 14 13 11 10 5 6 17 19 13 9 10 13 12 13 9 9 10 10 9 9 12 13 13 12 12 11 11 11 11 12 nan
nan 13 13 12 12 11 10 11 14 14 12 12 12 11 9 11 12 12 13 15 14 12 10 14 16 14 9 9 11 12 12 12 12 13 13 12 11 11 11 12 12 12 11 nan
nan 12 12 14 14 11 10 10 13 13 14 14 13 14 13 11 9 11 17 19 15 11 12 16 15 13 7 10 13 13 13 13 12 12 10 10 11 11 11 11 11 12 12 nan
nan 13 13 12 9 10 12 11 11 11 11 11 12 12 10 11 15 16 12 16 14 10 11 12 13 10 10 12 13 12 11 11 12 12 10 11 11 11 11 12 11 11 12 nan
nan 9 9 11 14 13 12 11 10 11 10 10 10 11 11 13 16 14 15 14 11 11 10 10 9 11 13 12 12 12 13 12 10 11 11 10 10 11 11 11 12 11 11 nan
nan nan nan nan nan nan nan nan nan nan nan nan nan nan nan nan nan nan nan nan nan nan nan nan nan nan nan nan nan nan nan nan nan nan nan nan nan nan nan nan nan nan nan nan
CAPE
26 70 26 34 104 142 94 163 274 188 206 298 70 46 0 0 6 2 0 0 0 0 0 0 0 0 0 0 0 0 0 0 0 0 0 0 0 1 1 0 2 6 11 25
12 4 13 107 253 40 95 77 113 98 100 41 36 0 0 0 4 0 0 0 0 0 0 0 0 0 0 0 0 0 0 0 0 0 0 0 0 0 0 0 0 0 0 0
9 13 46 37 86 76 71 76 55 59 24 27 0 0 0 1 2 0 0 0 0 0 0 0 0 0 0 0 0 0 0 0 0 0 0 0 0 0 0 0 0 0 0 0
33 30 49 359 0 15 26 10 24 25 49 0 0 0 0 2 1 0 0 0 0 2 0 0 0 0 0 0 0 0 0 0 0 0 0 0 0 0 0 0 0 0 0 0
50 72 27 4 0 0 0 0 6 22 18 0 0 0 0 2 2 0 0 0 0 0 0 0 0 0 0 0 0 0 0 0 0 0 0 0 0 0 0 0 0 0 0 1
53 92 18 39 0 0 0 24 0 0 0 0 0 1 11 1 4 0 0 0 0 0 0 0 0 0 0 0 0 0 0 0 0 0 0 0 2 0 0 1 2 2 5 6
66 80 26 14 0 0 19 42 0 0 0 0 0 0 0 3 3 0 0 0 0 0 0 0 0 0 0 0 0 0 0 0 0 0 1 1 1 3 6 8 9 13 13 12
91 53 42 0 0 0 13 0 0 0 0 0 0 0 1 5 0 0 0 0 0 0 0 0 0 0 0 0 0 0 0 0 0 0 0 3 4 3 4 6 9 9 13 19
66 48 1 0 0 0 0 0 0 0 0 0 0 0 0 0 0 0 0 0 0 0 0 0 0 0 0 0 0 0 0 0 0 0 1 1 2 4 2 2 2 3 6 11
32 30 0 0 0 0 0 0 0 0 0 0 0 0 0 0 0 0 0 0 0 0 0 0 0 0 0 0 0 0 0 0 0 0 0 0 0 0 3 5 5 3 8 13
34 34 0 0 0 0 0 0 0 0 0 0 0 0 0 0 0 0 0 0 0 0 0 0 0 0 0 0 0 0 0 0 0 0 0 0 0 0 1 6 2 8 15 16
116 21 18 1 0 0 0 0 0 0 0 0 0 0 0 0 0 0 0 0 0 0 0 0 0 0 0 0 0 0 0 0 0 0 0 0 0 0 0 0 0 0 0 5
0 0 0 0 0 0 0 0 0 0 0 0 0 0 0 0 0 0 0 0 0 0 0 0 0 0 0 0 0 0 0 0 0 0 0 0 0 0 1 2 0 0 0 0
0 0 0 0 0 0 0 0 0 0 0 0 0 0 0 0 0 0 0 0 0 0 0 0 0 0 0 0 0 0 0 0 0 2 1 1 0 0 0 2 2 5 1 0
0 0 0 0 0 0 0 0 0 0 0 0 0 0 0 0 0 0 0 0 0 0 0 0 0 0 0 0 0 1 4 4 4 5 3 1 1 1 1 2 2 5 5 1
0 0 0 0 0 0 0 0 0 0 0 0 0 0 0 0 0 0 0 0 0 0 0 0 0 0 0 0 0 0 1 0 0 4 4 4 3 3 2 4 6 11 14 17
0 0 0 0 0 0 0 0 0 0 0 0 0 0 0 0 0 0 0 0 0 0 0 0 0 0 0 1 1 7 10 6 1 5 6 6 5 7 6 11 15 17 21 11
0 0 0 0 0 0 0 0 0 0 0 0 0 0 0 0 0 0 0 0 0 0 0 0 0 0 0 1 2 6 9 8 8 8 7 9 11 9 14 17 18 19 21 9
0 0 0 0 0 0 0 0 0 0 0 0 0 0 0 0 0 0 0 0 0 0 0 0 0 0 0 0 2 5 8 8 5 4 6 1 10 13 17 18 21 18 18 14
0 0 0 0 0 0 0 0 0 0 0 0 0 0 0 0 0 0 0 0 0 0 0 0 0 0 0 0 0 1 6 5 1 1 5 6 12 17 16 1 6 17 18 18
0 0 0 0 0 0 0 0 0 0 0 0 0 0 0 0 0 0 0 0 0 0 0 0 0 0 0 0 0 2 8 7 4 5 9 13 13 12 11 11 13 15 17 16
0 0 0 0 0 0 0 0 0 0 0 0 0 0 0 0 0 0 0 0 0 0 0 0 0 0 0 0 0 10 9 7 9 10 9 8 8 8 8 10 11 11 10 9
0 0 0 0 0 0 0 0 0 0 0 0 0 0 0 0 0 0 0 0 0 0 0 0 0 0 0 6 14 14 13 8 7 5 5 5 6 5 6 6 3 4 4 4
0 0 0 0 0 0 0 0 0 0 0 0 0 0 0 0 0 0 0 0 0 0 6 2 0 0 0 15 13 12 10 9 7 6 5 0 4 1 1 1 1 2 1 1
0 0 0 0 0 0 0 0 0 0 0 0 0 0 0 0 2 3 3 1 0 3 8 0 0 0 11 13 9 9 8 7 5 5 3 1 1 0 1 1 0 1 1 3
0 0 0 0 0 0 0 0 0 0 0 2 2 6 8 7 5 7 6 3 4 6 10 10 9 9 9 6 6 5 4 2 2 1 0 0 0 0 0 0 0 1 2 2
0 0 0 0 0 0 0 0 2 4 5 9 7 10 10 11 10 8 6 13 12 9 8 8 7 4 5 5 2 2 2 1 0 0 0 0 0 0 0 0 1 1 1 1